Home > Weather > Springfield > Past weeks

Flag for U.S.A. Weather for the Past 2 Weeks in Springfield, Missouri, U.S.A.

Now
34 °F

Overcast.


Feels Like: 24 °F
Forecast: 26 / 37 °F
Wind: 15 mph from Northwest

Location: Springfield Regional Airport

Current Time: Feb 8, 2016 at 8:32:31 AM

Latest Report: Feb 8, 2016 at 7:52 AM


Visibility: 10 mi

Pressure: 29.97 "Hg

Humidity: 50%

Dew point: 17 °F

Location of SpringfieldLocation

Historic Weather in Springfield — Graph

°F

Springfield Temperature Yesterday

Maximum temperature yesterday: 50 °F (at 1:52 PM)
Minimum temperature yesterday: 30 °F (at 6:52 AM)
Average temperature yesterday: 42 °F

High & Low Weather Summary for the Past Weeks

 TemperatureHumidityPressure
High69 °F (Jan 29, 2:52 PM)90% (Feb 2, 6:52 AM)30.43 "Hg (Feb 2, 6:52 AM)
Low18 °F (Feb 4, 7:52 AM)19% (Feb 1, 2:52 PM)29.44 "Hg (Feb 2, 5:52 AM)
Average42 °F57%29.99 "Hg
* Reported Jan 24 6:52 AM — Feb 8 6:52 AM, Springfield, Weather by CustomWeather, © 2016

Note: Actual official high and low records may vary slightly from our data, if they occured in-between our weather recording intervals... More about our weather records

Advertising

Springfield Weather History for the Previous 24 Hours

 ConditionsComfort  
Time TempWeatherWind HumidityBarometerVisibility
6:52 AM
Mon, Feb 8
34 °FPassing clouds.22 mph48%29.98 "Hg10 mi
5:52 AM35 °FOvercast.14 mph52%29.97 "Hg10 mi
4:52 AM34 °FOvercast.18 mph59%29.97 "Hg10 mi
3:52 AM37 °FMostly cloudy.20 mph54%29.96 "Hg10 mi
2:52 AM38 °FOvercast.18 mph48%29.96 "Hg10 mi
1:52 AM39 °FOvercast.14 mph48%29.98 "Hg10 mi
12:52 AM39 °FMostly cloudy.10 mph50%30.00 "Hg10 mi
11:52 PM
Sun, Feb 7
39 °FOvercast.14 mph48%30.02 "Hg10 mi
10:52 PM40 °FPassing clouds.21 mph43%30.03 "Hg10 mi
9:52 PM42 °FMostly cloudy.15 mph33%30.02 "Hg10 mi
8:52 PM41 °FClear.8 mph38%30.02 "Hg10 mi
7:52 PM44 °FClear.9 mph38%30.03 "Hg10 mi
6:52 PM45 °FPassing clouds.7 mph37%30.03 "Hg10 mi
5:52 PM48 °FOvercast.10 mph32%30.02 "Hg10 mi
4:52 PM49 °FPartly sunny.9 mph44%30.03 "Hg10 mi
3:52 PM49 °FPartly sunny.15 mph43%30.03 "Hg10 mi
2:52 PM50 °FSunny.13 mph41%30.02 "Hg10 mi
1:52 PM50 °FPassing clouds.17 mph43%30.03 "Hg10 mi
12:52 PM49 °FPartly sunny.14 mph44%30.04 "Hg10 mi
11:52 AM47 °FSunny.16 mph46%30.05 "Hg10 mi
10:52 AM46 °FSunny.13 mph50%30.08 "Hg10 mi
9:52 AM46 °FSunny.21 mph50%30.07 "Hg10 mi
8:52 AM44 °FSunny.18 mph58%30.08 "Hg10 mi
Weather by CustomWeather, © 2016

See weather overviewHow to use our weather pages